Regional Weather Roundup
Issued by NWS

Home | Current Version | Previous Version | Text Only | Print | Product List | Glossary On
Versions: 1 2 3 4 5 6 7 8 9 10 11 12 13 14 15 16 17 18 19 20 21 22 23 24 25 26 27 28 29 30 31 32 33 34 35 36 37 38
000
ASUS43 KMKX 240711
RWRWI

WISCONSIN REGIONAL WEATHER ROUNDUP
NATIONAL WEATHER SERVICE MILWAUKEE/SULLIVAN WI
200 AM CDT WED AUG 24 2016

NOTE: "FAIR" INDICATES FEW OR NO CLOUDS BELOW 12,000 FEET WITH NO
SIGNIFICANT WEATHER AND/OR OBSTRUCTIONS TO VISIBILITY.

WIZ001-002-006>008-014>016-023>028-240800-
NORTHWEST WISCONSIN

CITY           SKY/WX    TMP DP  RH WIND       PRES   REMARKS
SUPERIOR ARPT  MOCLDY    63  62  98 S5        29.81F
ASHLAND        PTCLDY    65  61  87 CALM      29.85S
HAYWARD        CLOUDY    66  63  90 CALM      29.86F
SIREN          HVY RAIN  67  65  92 S6        29.83F
CUMBERLAND     LGT RAIN  64  63  94 S7        29.85F
RICE LAKE      DRIZZLE   67  65  93 E5        29.86F
CHETEK         NOT AVBL
LADYSMITH      CLOUDY    68  65  91 S5        29.89F
EAU CLAIRE     CLOUDY    69  67  93 S9        29.83F
MENOMONIE      RAIN      68  68  99 NW5       29.86R
NEW RICHMOND   CLOUDY    67  67  99 SE6       29.82F
OSCEOLA        RAIN      67  67 100 CALM      29.84F
$$

WIZ003>005-009-010-017-018-240800-
NORTH CENTRAL WISCONSIN

CITY           SKY/WX    TMP DP  RH WIND       PRES   REMARKS
MANITOWISH WTR NOT AVBL
ARBOR VITAE    LGT RAIN  69  65  85 S15G21    29.91F
WOODRUFF       LGT RAIN  69  65  85 S15G21    29.91F
RHINELANDER    LGT RAIN  66  64  93 SE7       29.94F
EAGLE RIVER    CLOUDY    65  59  80 S5        29.93F
LAND O LAKES   CLOUDY    66  61  83 S8        29.94S
PHILLIPS       CLOUDY    67  64  91 S7        29.89F
TOMAHAWK       CLOUDY    64  62  93 SE5       29.91F
MEDFORD        CLOUDY    65  65 100 SE12      29.89F
MERRILL        LGT RAIN  65  65 100 S5        29.92F
$$

WIZ029-030-035-036-043>047-240800-
CENTRAL WISCONSIN

CITY           SKY/WX    TMP DP  RH WIND       PRES   REMARKS
WAUSAU         RAIN      65  64  97 SE12      29.89F FOG
MOSINEE        RAIN      64  64 100 SE15G24   29.89F
MARSHFIELD     LGT RAIN  68  65  90 S6        29.90R
STEVENS POINT  RAIN      64  64 100 SE7       29.93F
WAUPACA        LGT RAIN  69  68  97 S6        29.97R
WAUTOMA        RAIN      68  67  96 S5        29.96F
WISC RAPIDS    LGT RAIN  67  67 100 S13G21    29.91F FOG
CAMP DOUGLAS   LGT RAIN  66  66 100 SW8       29.93F
$$

WIZ011>013-019>022-031-037>040-048>050-240800-
NORTHEAST WISCONSIN

CITY           SKY/WX    TMP DP  RH WIND       PRES   REMARKS
ANTIGO         LGT RAIN  64  63  96 S9        29.95F
SHAWANO        CLOUDY    69  63  80 S3        29.95F
OCONTO         NOT AVBL
STURGEON BAY   MOCLDY    68  62  81 S12       29.98F
GREEN BAY      CLOUDY    69  64  84 S10       29.95F
MANITOWOC      CLOUDY    68  62  81 MISG      29.99F
APPLETON       TSTM      68  63  83 S16G26    29.96S
CLINTONVILLE   LGT RAIN  68  61  77 S8        29.95F
OSHKOSH        LGT RAIN  68  65  90 S12       29.95F
$$

WIZ032>034-041-042-053>061-240800-
SOUTHWEST WISCONSIN

CITY           SKY/WX    TMP DP  RH WIND       PRES   REMARKS
LA CROSSE      RAIN      68  32  26 S14       29.87F
SPARTA         CLOUDY    65  65  99 S17       29.91S
VIROQUA        CLOUDY    65  65 100 SE3       29.95R
BOSCOBEL       TSTM      68  67  96 CALM      29.93F FOG
PRAIRIE DU CHI CLOUDY    69  68  96 NW5       29.92S
PLATTEVILLE    CLOUDY    72  70  96 S16       29.97S
$$

WIZ056-057-062-063-064-067-068-240800-
SOUTH CENTRAL WISCONSIN

CITY           SKY/WX    TMP DP  RH WIND       PRES   REMARKS
REEDSBURG      NOT AVBL
BARABOO/DELLS  CLOUDY    69  66  91 S6        29.94F FOG
LONE ROCK      TSTM      73  68  84 S12G21    29.92F
MINERAL POINT  CLOUDY    72  70  94 S16       29.96F
MADISON        CLOUDY    71  68  90 S14       29.97S
MIDDLETON      CLOUDY    71  70  96 S13G20    29.97F
WATERTOWN      CLOUDY    71  66  84 S13G25    29.98F
MONROE         CLOUDY    70  68  94 S15G22    29.98F
JANESVILLE     CLOUDY    70  68  94 S13G18    29.99F
$$

WIZ051-052-058>065-066-070>072-240800-
SOUTHEAST WISCONSIN

CITY           SKY/WX    TMP DP  RH WIND       PRES   REMARKS
MILWAUKEE      CLOUDY    75  63  66 S13       30.02F
WAUKESHA       CLOUDY    70  61  73 S8G16     30.02F
MILWAUKEE/TIMM CLOUDY    72  59  64 S12G17    30.02F
RACINE         CLOUDY    73  62  68 S8        30.05F
BURLINGTON     CLOUDY    71  63  74 S9G20     30.02F
KENOSHA        CLOUDY    74  63  68 S14       30.04F
FOND DU LAC    LGT RAIN  70  65  84 S14G22    29.97F
SHEBOYGAN      CLOUDY    70  63  78 S15       29.99F
WEST BEND      CLOUDY    72  63  73 S12G18    29.99F
JUNEAU         CLOUDY    70  65  85 S13G21    29.98F
$$

LSZ147-162-240800-
LAKE SUPERIOR

STATION/POSITION TIME  TEMP    WIND        PRES    WAVE
                       AIR SEA DIR/SP/G            HT/PER
                 (UTC) (F)     (DEG/KT/KT) (MB)    (FT/S)
W MID LAKE BUOY  0650   70 68  190/  8/ 10 1010.2F   1/ 4
DEVILS ISLAND    0600   72     170/  8/ 11 1010.0F
PORT WING        0500   73     160/  8/ 15 1010.5F
SAXON HARBOR     0640   71     170/  3/  6 1010.2F
$$

LMZ867-665-643>646-240800-
LAKE MICHIGAN

STATION/POSITION TIME  TEMP    WIND        PRES    WAVE
                       AIR SEA DIR/SP/G            HT/PER
                 (UTC) (F)     (DEG/KT/KT) (MB)    (FT/S)
CHAMBERS ISLAND  0600   71     170/  4/ 12 1015.6F
S GREEN BAY BUOY 0630   72 73  180/ 16/ 21 1014.5F
N MID LAKE BUOY  0650   71 70  190/ 17/ 21 1014.7F   5/ 6
NORTHPORT PIER   0600   69     160/  5/  9 1015.9F
SISTER BAY       0607   69     140/ 11/ 13   N/A
KEWAUNEE LAKESHO 0600   63     190/  5/  7 1016.1F
SHEBOYGAN LAKESH 0700   65     180/ 21/ 22 1015.0F
PORT WASHINGTON  0600   63     200/  5/  9 1017.6F
ATWATER BUOY     0700   64 50  170/ 12/ 14   N/A
MILWAUKEE LAKESH 0610   71     180/ 13/ 16   N/A
S MID LAKE BUOY  0650   75 75  170/ 19/ 25 1016.8F   4/ 5
KENOSHA   LAKESH 0700   74     190/ 11/ 15 1016.9F
$$

TC  - TEMPERATURE IN CELSIUS
VSB - VISIBILITY IN STATUTE MILES
WCI - WIND CHILL INDEX
HX  - HEAT INDEX





USA.gov is the U.S. government's official web portal to all federal, state and local government web resources and services.